MCMWTC BRIDGEPORT, CA, CA

2:06 PM PDT on May 29, 2017 (GMT -0700)
MCMWTC BRIDGEPORT, CA

Weather History for KBAN - March, 2014

Change the Weather History Date:

Thursday, March 27, 2014

  Actual Average (KTVL) Record (KTVL)
Temperature  
Mean Temperature 36 °F -  
Max Temperature 42 °F 46 °F 70 °F (1988)
Min Temperature 30 °F 25 °F 3 °F (1975)
Degree Days  
Heating Degree Days 30    
Moisture  
Dew Point 19 °F    
Average Humidity 53    
Maximum Humidity 61    
Minimum Humidity 43    
Precipitation  
Precipitation 0.00 in - - ()
Sea Level Pressure  
Sea Level Pressure 29.92 in    
Wind  
Wind Speed 7 mph (SW)    
Max Wind Speed 20 mph    
Max Gust Speed 31 mph    
Visibility 10 miles    
Events      
Averages and records for this station are not official NWS values.
T = Trace of Precipitation, MM = Missing Value Source: NWS Daily Summary

Daily Weather History Graph

Daily Weather History Graph

Search for Another Location

Airport or City:

Trip Planner

Search our weather history database for the weather conditions in past years. The results will help you decide how hot, cold, wet, or windy it might be!

Date:

Astronomy

Mar. 27, 2014 Rise Set
Actual Time 6:50 AM PDT 7:16 PM PDT
Civil Twilight 6:24 AM PDT 7:43 PM PDT
Nautical Twilight 5:52 AM PDT 8:14 PM PDT
Astronomical Twilight 5:21 AM PDT 8:46 PM PDT
Moon 4:42 AM PDT (3/27) 4:12 PM PDT (3/27)
Length of Visible Light 13h 19m
Length of Day
12h 26m
Waning Crescent, 12% of the Moon is Illuminated
Mar 27
Waning Crescent
Mar 30
New
Apr 7
First Quarter
Apr 15
Full
Apr 22
Last Quarter

Hourly Weather History & Observations

Time (PDT) Temp. Windchill Dew Point Humidity Pressure Visibility Wind Dir Wind Speed Gust Speed Precip Events Conditions
12:52 AM 30.9 °F - 15.1 °F 52% 29.79 in 10.0 mi Calm Calm - N/A   Scattered Clouds
1:52 AM 30.9 °F - 16.0 °F 54% 29.78 in 10.0 mi Calm Calm - N/A   Mostly Cloudy
2:52 AM 30.0 °F 26.5 °F 16.0 °F 56% 29.80 in 10.0 mi Variable 3.5 mph - N/A   Overcast
3:52 AM 30.9 °F 23.5 °F 17.1 °F 57% 29.81 in 10.0 mi SW 8.1 mph - N/A   Overcast
4:52 AM 30.9 °F 22.8 °F 18.0 °F 59% 29.82 in 10.0 mi South 9.2 mph - N/A   Overcast
5:52 AM 30.0 °F 26.5 °F 17.1 °F 59% 29.83 in 10.0 mi SSW 3.5 mph - N/A   Overcast
6:52 AM 30.0 °F 21.7 °F 18.0 °F 61% 29.86 in 10.0 mi SSW 9.2 mph - N/A   Overcast
7:52 AM 32.0 °F 24.2 °F 17.1 °F 54% 29.88 in 10.0 mi SSW 9.2 mph - N/A   Overcast
8:52 AM 33.1 °F 24.9 °F 19.0 °F 56% 29.90 in 10.0 mi SSW 10.4 mph - N/A   Overcast
9:52 AM 35.1 °F 25.5 °F 19.9 °F 54% 29.91 in 10.0 mi SSW 15.0 mph 20.7 mph N/A   Overcast
10:52 AM 37.0 °F 30.4 °F 17.1 °F 44% 29.91 in 10.0 mi South 9.2 mph 25.3 mph N/A   Overcast
11:52 AM 37.9 °F 27.9 °F 17.1 °F 43% 29.94 in 10.0 mi SSW 19.6 mph 31.1 mph N/A   Overcast
12:52 PM 37.9 °F 30.5 °F 19.9 °F 48% 29.94 in 10.0 mi SSW 11.5 mph 17.3 mph N/A   Overcast
1:52 PM 37.9 °F 30.9 °F 21.0 °F 51% 29.95 in 10.0 mi South 10.4 mph 17.3 mph N/A   Overcast
2:52 PM 41.0 °F 33.9 °F 21.9 °F 47% 29.94 in 10.0 mi SW 12.7 mph 25.3 mph N/A   Overcast
3:52 PM 39.0 °F 30.6 °F 21.0 °F 49% 29.94 in 10.0 mi SW 15.0 mph 26.5 mph N/A   Mostly Cloudy
4:52 PM 41.0 °F 32.8 °F 21.0 °F 45% 29.94 in 10.0 mi WSW 16.1 mph 27.6 mph N/A   Partly Cloudy
5:52 PM 39.0 °F 30.6 °F 21.0 °F 49% 29.95 in 10.0 mi SSW 15.0 mph 28.8 mph N/A   Partly Cloudy
6:52 PM 37.0 °F 28.5 °F 21.0 °F 52% 29.97 in 10.0 mi SSW 13.8 mph 23.0 mph N/A   Partly Cloudy
7:52 PM 37.0 °F 29.3 °F 21.0 °F 52% 30.00 in 10.0 mi SW 11.5 mph 19.6 mph N/A   Partly Cloudy
8:52 PM 35.1 °F 27.4 °F 19.9 °F 54% 30.03 in 10.0 mi West 10.4 mph - N/A   Clear
9:52 PM 34.0 °F 28.0 °F 21.0 °F 59% 30.04 in 10.0 mi West 6.9 mph - N/A   Partly Cloudy
10:52 PM 32.0 °F 28.7 °F 19.9 °F 61% 30.05 in 10.0 mi West 3.5 mph - N/A   Overcast
11:52 PM 32.0 °F 27.5 °F 19.9 °F 61% 30.06 in 10.0 mi NNW 4.6 mph - N/A   Clear